RH
94 98 97 83 69 79 67 67 26 31 39 50 52 58 56 49 38 36 36 35 36 37 39 43 47 51 53 54 55 56 55 55 54 54 56 59 63 65 67 67 68 67 70
92 93 98 90 69 79 70 66 26 30 44 49 55 61 56 50 40 38 37 37 38 39 42 44 47 49 53 54 58 59 61 61 60 60 61 63 67 68 70 72 72 75 73
99 87 93 90 74 76 76 69 26 39 54 55 60 61 58 55 48 39 38 39 40 42 44 45 47 50 51 54 56 59 62 65 66 66 68 72 75 79 78 77 77 77 77
98 88 87 91 82 72 80 72 28 38 59 62 56 61 57 56 53 48 41 39 42 43 45 46 47 50 50 54 55 60 61 65 70 72 73 78 85 89 93 90 89 87 90
99 94 88 88 84 75 81 72 29 36 56 67 62 61 60 57 55 53 51 48 52 49 51 50 53 54 56 59 63 68 79 84 71 80 82 86 92 94 95 91 92 95 100
100 95 87 80 78 80 84 74 29 38 55 63 65 66 68 65 63 63 64 65 60 58 60 60 64 72 74 76 79 84 81 80 84 87 84 82 86 84 86 88 93 92 93
100 94 87 82 80 88 75 75 32 35 57 66 68 74 77 77 78 75 75 69 66 65 64 66 75 79 79 81 81 85 86 84 90 92 91 89 86 81 78 86 91 94 95
87 98 92 81 86 94 78 79 37 35 51 67 71 76 86 86 84 79 75 69 66 68 66 70 77 80 81 82 83 86 89 88 88 91 92 90 84 75 80 90 92 97 90
97 94 99 84 85 92 79 70 49 39 57 68 69 78 90 88 78 80 68 65 68 68 68 72 79 82 85 85 88 92 89 89 82 86 93 90 80 88 94 92 93 87 85
87 73 92 93 86 90 80 65 60 40 56 68 78 81 72 58 67 66 61 69 71 73 77 80 81 84 85 84 82 92 90 85 86 92 90 89 90 94 95 94 91 83 78
78 73 91 92 90 88 85 68 63 46 62 64 73 81 73 60 55 55 60 67 75 78 81 82 82 87 82 72 74 88 91 94 86 82 83 84 80 80 78 85 80 76 71
84 74 75 91 92 89 88 68 63 49 59 69 66 66 64 62 55 55 50 61 71 75 78 80 86 89 77 74 77 84 84 87 86 90 90 88 75 73 75 78 76 79 74
86 69 58 58 78 79 89 66 63 52 53 70 69 67 63 62 57 57 58 60 69 73 76 80 86 80 76 75 77 79 79 77 79 88 83 79 72 72 73 74 81 82 88
85 63 82 97 86 85 88 69 58 51 52 74 74 76 68 64 65 63 62 61 70 72 76 81 78 76 75 79 77 78 74 74 79 81 81 72 60 60 63 86 89 95 95
78 94 100 99 90 94 87 67 65 67 63 71 76 78 74 71 69 74 72 67 64 64 64 71 70 70 71 74 83 84 93 82 80 76 57 46 43 49 61 67 89 92 80
64 57 91 89 84 96 82 73 72 72 74 77 78 78 78 75 77 75 79 78 73 64 63 63 63 67 73 79 83 75 83 67 52 48 43 42 41 42 44 48 55 78 87
72 67 83 87 88 94 86 77 79 77 79 80 80 78 77 76 77 74 68 85 80 70 67 68 68 70 83 92 85 82 70 46 42 43 45 42 39 39 42 50 65 78 81
89 83 81 89 87 100 91 83 86 80 78 80 83 84 78 74 73 72 87 88 84 76 73 73 78 84 93 90 91 70 53 48 43 42 41 45 44 43 47 67 63 79 91
93 99 95 87 87 94 96 92 87 85 84 88 83 84 80 74 76 91 96 96 87 81 80 77 90 96 98 97 85 55 54 47 45 45 47 52 50 47 49 66 91 95 89
100 92 85 81 80 85 87 84 87 86 88 78 81 86 87 83 79 84 86 95 88 88 85 90 96 98 93 72 56 55 53 47 49 52 55 55 52 49 50 75 84 90 86
95 100 88 83 75 75 80 88 84 89 88 85 88 89 86 88 85 77 74 91 90 89 97 100 97 91 75 70 64 53 50 50 49 53 56 54 53 55 59 80 99 92 96
99 100 89 86 87 85 78 80 78 78 79 81 85 93 91 85 84 75 94 93 95 96 96 99 98 85 74 57 50 51 49 51 50 53 58 57 55 58 71 86 98 100 98
100 96 95 94 89 87 88 85 84 85 85 85 83 89 88 79 71 81 100 98 96 100 100 100 95 75 67 50 52 51 53 52 55 62 63 59 58 65 75 84 96 95 95
100 100 100 96 90 92 90 88 80 82 77 85 87 87 85 79 80 92 98 96 100 98 100 98 85 75 58 54 57 58 59 61 65 70 67 64 64 68 68 72 90 97 99
90 84 88 100 100 100 95 86 96 93 85 92 90 89 97 89 93 99 100 100 100 97 98 88 72 66 58 59 62 64 66 66 69 71 68 66 64 70 70 75 92 96 96
98 99 100 100 100 100 100 100 100 100 100 100 98 98 100 100 100 100 100 100 98 88 82 74 71 65 61 63 65 68 70 69 72 74 69 68 69 65 52 70 87 98 93
Wind_Speed
37 35 34 33 32 29 27 24 25 27 24 21 18 15 12 10 11 10 9 9 8 7 6 5 3 2 1 1 2 3 4 4 5 5 6 7 8 9 9 10 11 12 13
41 39 37 35 33 31 29 26 26 29 26 22 19 16 12 11 11 11 10 9 8 8 6 5 4 3 3 3 4 5 5 6 6 6 6 6 8 9 10 11 12 13 13
43 42 40 38 35 33 30 28 28 30 29 25 21 18 14 12 10 12 11 10 9 8 7 6 5 5 5 5 6 7 7 8 7 7 7 8 9 10 12 13 14 13 12
46 44 44 40 36 35 33 31 31 33 31 27 23 20 16 13 11 12 11 11 9 8 8 7 6 6 6 7 8 9 9 9 9 9 10 11 12 13 15 16 16 16 15
49 47 45 42 38 38 36 34 34 36 34 30 24 20 16 14 12 12 11 11 9 8 7 6 6 6 6 8 9 9 10 12 10 11 12 13 15 16 17 18 17 17 16
48 46 45 41 38 40 39 36 37 39 34 30 25 21 16 14 14 13 11 11 9 8 7 7 6 5 6 8 8 9 9 9 11 14 14 16 16 17 18 18 17 17 15
47 42 42 41 43 45 43 40 39 41 37 31 27 21 18 18 17 15 13 13 12 10 10 10 9 8 8 9 9 10 10 11 12 13 14 13 14 16 17 17 18 16 14
41 42 41 43 48 45 45 44 43 44 39 35 31 26 21 20 21 19 17 16 13 12 12 12 12 12 12 13 15 14 13 13 14 15 14 14 16 16 15 15 12 9 7
41 36 38 46 49 48 49 48 46 46 44 39 36 24 15 11 23 23 21 19 16 15 14 14 14 14 15 16 18 17 13 15 15 16 17 17 17 14 11 10 11 10 8
46 31 36 51 49 52 49 50 49 47 45 44 41 36 22 15 14 15 24 22 20 18 16 15 16 17 19 21 18 17 15 15 14 14 16 14 12 10 11 12 13 13 11
45 61 35 52 51 52 52 54 52 50 48 46 45 42 32 20 18 16 18 26 24 22 20 18 18 19 20 18 16 13 13 14 11 12 11 12 15 16 16 15 14 11 9
38 47 51 44 49 52 54 53 53 51 50 47 45 43 41 33 25 26 22 27 25 23 22 20 20 21 18 16 13 12 11 12 12 12 12 14 13 11 9 10 10 11 12
44 48 55 59 59 57 56 52 53 52 50 49 46 43 39 38 29 26 24 22 25 24 22 22 22 18 17 13 11 11 13 13 12 12 12 13 13 12 13 12 12 14 14
40 43 53 58 59 59 56 52 52 50 49 47 44 42 39 37 33 27 28 24 22 21 22 22 18 18 17 14 13 12 12 12 12 14 17 17 17 17 18 16 15 15 15
44 30 53 56 56 57 54 51 48 48 47 46 44 41 39 37 35 29 27 25 24 19 21 21 20 19 19 16 15 14 15 14 15 17 17 17 17 19 20 18 18 17 13
35 48 41 51 54 55 50 49 46 43 43 44 44 42 40 38 36 34 32 29 28 23 18 17 20 22 20 19 18 18 18 16 17 18 19 19 20 20 20 20 19 17 12
34 46 53 52 51 51 52 49 47 38 40 42 44 42 41 40 39 39 36 33 30 27 22 19 22 23 22 22 20 17 17 16 18 20 21 21 21 19 19 20 16 12 16
37 47 50 49 50 52 51 48 49 42 42 40 41 41 43 43 41 38 36 34 32 29 26 25 25 24 25 23 21 18 18 18 19 22 22 21 20 20 19 16 15 13 12
34 36 34 39 43 47 46 45 46 45 43 41 39 41 43 42 41 39 37 35 33 32 29 28 25 25 24 22 20 19 19 19 20 22 22 21 20 20 18 15 11 12 14
33 31 29 30 32 34 36 37 37 41 42 40 39 40 42 43 43 42 39 38 35 34 32 31 28 25 19 19 20 20 21 20 20 22 20 19 19 18 18 16 13 15 15
33 36 31 28 28 28 30 31 34 37 40 41 40 41 42 43 43 42 40 39 38 35 33 32 30 27 21 22 23 21 21 20 21 20 19 18 16 15 14 13 13 16 16
29 31 27 26 29 31 32 30 30 37 37 37 39 42 43 42 42 42 39 37 36 37 34 36 32 27 22 21 20 20 20 20 19 20 18 16 15 14 13 11 11 15 15
22 17 21 23 26 30 33 33 33 36 38 41 42 45 42 44 46 44 41 42 34 36 35 31 27 23 21 19 19 19 20 21 19 18 15 14 13 11 11 11 11 14 16
15 15 20 20 24 28 30 34 36 39 41 44 45 46 46 43 47 49 44 42 38 36 33 31 23 19 20 19 19 19 19 19 17 16 14 13 11 10 10 10 11 15 17
12 11 7 6 13 27 27 31 30 42 42 43 41 46 48 43 43 43 42 39 40 38 29 20 20 25 24 21 19 18 16 16 15 15 14 13 13 11 9 8 10 13 15
9 6 3 1 6 10 13 17 21 25 25 30 34 38 30 36 38 40 44 38 30 23 23 28 34 29 24 20 19 17 15 15 15 13 14 15 12 10 6 8 9 11 13
Wind_Direction
213 207 206 201 201 194 193 194 192 194 192 192 187 185 179 175 176 180 179 177 171 168 165 159 155 144 132 21 11 5 5 358 359 4 7 8 4 9 6 6 2 4 5
217 212 208 206 205 196 195 195 196 195 194 196 191 188 187 182 182 184 185 182 179 181 188 190 206 230 268 308 312 316 325 321 328 336 340 344 348 351 349 351 351 350 347
216 215 212 209 208 198 196 194 195 193 195 196 197 192 190 189 189 191 189 189 192 198 204 216 232 252 275 289 293 300 299 297 304 311 317 324 326 333 333 335 334 334 335
212 214 214 212 208 201 198 196 195 193 196 200 199 196 193 194 196 195 197 198 203 211 220 230 243 261 273 283 290 297 294 290 292 299 298 308 312 320 320 321 321 323 324
210 214 214 212 210 204 199 198 196 195 196 199 202 201 199 198 202 205 201 202 211 218 226 234 250 263 277 285 297 302 294 296 302 299 301 305 310 308 311 315 317 312 305
211 209 215 214 213 208 201 199 197 196 199 200 201 202 205 207 210 213 212 214 219 223 228 234 239 263 281 285 288 295 298 295 297 295 301 300 303 308 310 311 311 310 304
194 206 213 216 217 213 205 202 198 198 198 199 199 199 208 211 215 218 223 226 230 234 234 236 250 266 275 282 282 287 289 286 289 291 298 305 311 312 312 315 312 307 309
203 207 220 218 217 213 207 204 200 196 199 199 197 199 201 216 223 224 227 230 233 237 237 241 255 263 275 284 284 285 291 293 288 291 294 304 307 307 314 314 320 322 314
204 211 212 224 222 216 209 206 203 202 198 198 203 191 188 210 219 225 228 231 233 234 235 242 253 264 278 288 286 283 290 287 280 284 288 295 299 312 316 319 316 322 316
226 224 240 225 226 219 210 207 206 204 203 199 201 208 205 210 196 215 225 226 223 226 232 243 257 267 281 287 281 280 279 278 278 275 282 294 300 299 298 298 302 306 298
232 228 227 216 224 224 212 206 206 206 206 206 204 205 211 214 214 210 210 211 215 223 231 244 258 268 284 280 279 270 269 280 287 285 290 291 286 284 286 292 298 299 306
225 232 230 226 228 226 214 210 210 208 208 212 213 212 212 215 218 218 220 213 217 223 231 244 257 271 271 272 273 266 269 274 270 274 277 278 281 299 300 299 301 299 300
226 233 235 230 224 227 215 210 212 210 210 213 216 218 221 222 229 233 233 226 217 223 234 246 259 261 261 261 259 264 267 268 270 274 271 274 283 286 290 289 292 297 297
225 232 231 213 213 217 212 210 213 212 213 216 219 222 226 228 231 239 237 232 219 228 239 245 251 249 245 239 248 259 266 273 274 276 276 282 288 290 288 284 281 285 292
220 200 186 195 207 212 208 210 213 212 215 218 222 225 229 232 233 235 235 239 237 235 244 242 241 240 239 237 243 259 269 276 276 278 285 287 288 283 281 282 276 281 285
210 219 221 209 210 208 207 208 211 214 217 221 224 227 229 232 234 235 238 242 241 243 246 239 241 240 239 243 253 268 267 277 281 288 290 288 286 285 282 279 275 266 252
212 219 210 211 211 204 208 211 212 216 219 223 226 229 232 234 237 239 240 238 238 236 241 249 245 246 242 245 260 258 260 270 283 286 288 290 291 289 282 279 278 244 243
206 203 209 213 213 208 209 213 213 217 221 223 226 231 233 236 237 236 234 235 239 235 244 256 253 249 239 252 257 258 265 273 279 288 292 297 294 287 280 270 269 246 230
203 207 208 213 216 214 212 215 222 222 223 225 232 234 234 234 233 231 233 239 238 236 249 252 243 241 247 252 255 262 270 281 285 289 289 290 292 292 286 267 248 226 227
217 205 208 211 217 222 225 230 228 229 226 231 234 237 237 237 235 235 238 239 237 241 249 244 235 239 243 255 263 270 275 283 285 286 286 288 288 290 282 264 242 231 236
215 210 210 216 212 217 216 217 222 222 226 235 234 243 243 241 241 240 240 238 238 241 244 237 236 233 239 244 256 259 268 281 287 285 280 277 278 281 283 262 243 230 235
211 205 211 217 214 217 219 226 236 232 237 239 243 244 243 241 239 242 237 237 243 247 241 233 233 238 237 242 246 259 273 280 284 278 265 263 269 268 261 252 243 242 234
194 203 209 215 223 228 229 235 240 239 241 245 249 249 244 240 239 233 234 238 246 243 235 231 231 235 233 239 250 261 271 277 272 258 253 256 258 256 253 249 240 241 241
148 209 213 215 230 235 235 238 243 244 247 249 249 252 245 241 240 241 240 242 240 229 222 225 227 225 235 243 252 262 272 274 263 252 248 255 255 258 260 259 244 242 245
100 111 132 192 231 227 228 233 249 241 244 245 245 249 240 245 240 239 239 241 232 233 226 225 216 223 231 237 249 263 269 269 262 255 251 252 255 256 263 262 241 244 242
57 53 40 234 229 218 216 224 238 250 257 235 236 251 243 236 242 245 241 227 220 223 227 219 214 217 227 237 247 253 258 259 250 250 249 248 247 251 257 251 240 233 241